Location: ??????
(55.0357°N, 38.6195°E)
Time: 03:34:40
(UTC+00:00)

EO 1 Delta rocket - Pass Details

Date: 14 April 2024
Orbit: 696 x 1790 km, 95.4° (Epoch: 20 May)

Event Time Altitude Azimuth Distance (km) Brightness Sun altitude
Rises 00:19:01 0° 12° (NNE) 3,282 8.3 -16.0°
Reaches altitude 10° 00:21:28 10° 17° (NNE) 2,269 7.4 -15.8°
Maximum altitude 00:26:12 55° 96° (E) 847 4.4 -15.3°
Drops below altitude 10° 00:30:44 10° 174° (S) 2,170 6.0 -14.8°
Enters shadow 00:31:06 - 175° (S) 2,315 6.1 -14.8°
